Time,TemperatureF,DewpointF,PressureIn,WindDirection,WindDirectionDegrees,WindSpeedMPH,WindSpeedGustMPH,Humidity,HourlyPrecipIn,Conditions,Clouds,dailyrainin,SoftwareType,DateUTC
2013-06-02 10:22:00,78.0,76.0,29.99,ESE,103,0.0,0.0,94,0.00,,,1.91,,2013-06-02 14:22:00,
2013-06-02 10:32:00,79.0,76.0,29.99,South,183,0.0,2.0,91,0.00,,,1.91,,2013-06-02 14:32:00,
2013-06-02 10:42:00,79.0,76.0,29.99,South,183,0.0,2.0,91,0.00,,,1.91,,2013-06-02 14:42:00,
2013-06-02 10:52:00,80.0,76.0,29.99,East,100,0.0,0.0,88,0.00,,,1.91,,2013-06-02 14:52:00,
2013-06-02 11:01:00,81.0,76.0,29.98,SW,214,0.0,1.0,84,0.00,,,1.91,,2013-06-02 15:01:00,
2013-06-02 11:11:00,81.0,76.0,29.98,SW,214,0.0,1.0,84,0.00,,,1.91,,2013-06-02 15:11:00,
2013-06-02 11:22:00,82.0,76.0,29.98,SSE,158,2.0,2.0,83,0.00,,,1.91,,2013-06-02 15:22:00,
2013-06-02 11:33:00,82.0,76.0,29.98,SSW,195,1.0,1.0,81,0.00,,,1.91,,2013-06-02 15:33:00,
2013-06-02 11:43:00,84.0,77.0,29.97,SSE,158,1.0,1.0,79,0.00,,,1.91,,2013-06-02 15:43:00,
2013-06-02 11:53:00,84.0,77.0,29.97,SSE,158,1.0,1.0,79,0.00,,,1.91,,2013-06-02 15:53:00,
2013-06-02 12:03:00,85.0,77.0,29.97,East,86,1.0,1.0,76,0.00,,,1.91,,2013-06-02 16:03:00,
2013-06-02 12:13:00,85.0,77.0,29.97,East,86,1.0,1.0,76,0.00,,,1.91,,2013-06-02 16:13:00,
2013-06-02 12:23:00,88.0,77.0,29.97,SE,143,1.0,1.0,69,0.00,,,1.91,,2013-06-02 16:23:00,
2013-06-02 12:33:00,88.0,76.0,29.97,SW,231,1.0,1.0,67,0.00,,,1.91,,2013-06-02 16:33:00,
2013-06-02 12:42:00,88.0,76.0,29.97,SW,231,1.0,1.0,67,0.00,,,1.91,,2013-06-02 16:42:00,
2013-06-02 12:53:00,89.0,76.0,29.97,SW,214,1.0,2.0,65,0.00,,,1.91,,2013-06-02 16:53:00,
2013-06-02 13:02:00,87.0,76.0,29.96,WSW,252,0.0,0.0,71,0.00,,,1.91,,2013-06-02 17:02:00,
2013-06-02 13:12:00,87.0,76.0,29.96,WSW,252,0.0,0.0,71,0.00,,,1.91,,2013-06-02 17:12:00,
2013-06-02 13:23:00,86.0,76.0,29.96,SW,214,2.0,4.0,72,0.00,,,1.91,,2013-06-02 17:23:00,
2013-06-02 13:32:00,88.0,77.0,29.95,WSW,243,1.0,1.0,69,0.00,,,1.91,,2013-06-02 17:32:00,
2013-06-02 13:42:00,88.0,76.0,29.95,SSW,203,3.0,5.0,68,0.00,,,1.91,,2013-06-02 17:42:00,
2013-06-02 13:52:00,88.0,76.0,29.95,SSW,203,3.0,5.0,68,0.00,,,1.91,,2013-06-02 17:52:00,
2013-06-02 14:02:00,87.0,76.0,29.95,SW,230,1.0,1.0,70,0.00,,,1.91,,2013-06-02 18:02:00,
2013-06-02 14:11:00,87.0,76.0,29.95,SW,230,1.0,1.0,70,0.00,,,1.91,,2013-06-02 18:11:00,
2013-06-02 14:21:00,87.0,76.0,29.95,SW,231,1.0,4.0,69,0.00,,,1.91,,2013-06-02 18:21:00,
2013-06-02 14:32:00,87.0,76.0,29.95,WSW,245,3.0,3.0,70,0.00,,,1.91,,2013-06-02 18:32:00,
2013-06-02 14:42:00,87.0,76.0,29.94,West,273,1.0,3.0,70,0.00,,,1.91,,2013-06-02 18:42:00,
2013-06-02 14:52:00,87.0,76.0,29.94,West,273,1.0,3.0,70,0.00,,,1.91,,2013-06-02 18:52:00,
2013-06-02 15:01:00,87.0,76.0,29.95,West,260,2.0,4.0,70,0.00,,,1.91,,2013-06-02 19:01:00,
2013-06-02 15:11:00,87.0,76.0,29.95,West,260,2.0,4.0,70,0.00,,,1.91,,2013-06-02 19:11:00,
2013-06-02 15:22:00,89.0,77.0,29.95,West,262,3.0,3.0,68,0.00,,,1.91,,2013-06-02 19:22:00,
2013-06-02 15:32:00,87.0,76.0,29.94,SSE,158,1.0,2.0,71,0.00,,,1.91,,2013-06-02 19:32:00,
2013-06-02 15:42:00,87.0,76.0,29.94,SSE,158,1.0,2.0,71,0.00,,,1.91,,2013-06-02 19:42:00,
2013-06-02 15:52:00,88.0,77.0,29.94,SW,221,1.0,2.0,70,0.00,,,1.91,,2013-06-02 19:52:00,
2013-06-02 16:02:00,87.0,77.0,29.94,West,278,1.0,5.0,73,0.00,,,1.91,,2013-06-02 20:02:00,
2013-06-02 16:11:00,87.0,77.0,29.94,West,278,1.0,5.0,73,0.00,,,1.91,,2013-06-02 20:11:00,
2013-06-02 16:22:00,87.0,77.0,29.94,SE,145,6.0,6.0,72,0.00,,,1.91,,2013-06-02 20:22:00,
2013-06-02 16:32:00,85.0,77.0,29.94,SW,229,2.0,3.0,76,0.00,,,1.91,,2013-06-02 20:32:00,
2013-06-02 16:42:00,85.0,77.0,29.94,SW,229,2.0,3.0,76,0.00,,,1.91,,2013-06-02 20:42:00,
2013-06-02 16:52:00,85.0,77.0,29.93,SSW,193,2.0,2.0,76,0.00,,,1.91,,2013-06-02 20:52:00,
2013-06-02 17:02:00,85.0,77.0,29.93,West,260,6.0,6.0,77,0.00,,,1.91,,2013-06-02 21:02:00,
2013-06-02 17:12:00,85.0,77.0,29.93,West,260,6.0,6.0,77,0.00,,,1.91,,2013-06-02 21:12:00,
2013-06-02 17:22:00,86.0,77.0,29.92,WSW,248,1.0,4.0,75,0.00,,,1.91,,2013-06-02 21:22:00,
2013-06-02 17:33:00,86.0,78.0,29.92,West,281,4.0,4.0,76,0.00,,,1.91,,2013-06-02 21:33:00,
2013-06-02 17:42:00,86.0,78.0,29.92,West,281,4.0,4.0,76,0.00,,,1.91,,2013-06-02 21:42:00,
2013-06-02 17:53:00,85.0,76.0,29.92,West,269,1.0,3.0,75,0.00,,,1.91,,2013-06-02 21:53:00,
2013-06-02 18:03:00,84.0,75.0,29.91,WNW,283,3.0,4.0,75,0.00,,,1.91,,2013-06-02 22:03:00,
2013-06-02 18:12:00,84.0,75.0,29.91,WNW,283,3.0,4.0,75,0.00,,,1.91,,2013-06-02 22:12:00,
2013-06-02 18:23:00,84.0,76.0,29.91,WNW,290,3.0,3.0,78,0.00,,,1.91,,2013-06-02 22:23:00,
2013-06-02 18:33:00,83.0,76.0,29.91,WSW,237,6.0,6.0,79,0.00,,,1.91,,2013-06-02 22:33:00,
2013-06-02 18:42:00,83.0,76.0,29.91,WSW,237,6.0,6.0,79,0.00,,,1.91,,2013-06-02 22:42:00,
2013-06-02 18:53:00,83.0,75.0,29.91,WSW,255,1.0,2.0,77,0.00,,,1.91,,2013-06-02 22:53:00,
2013-06-02 19:02:00,83.0,76.0,29.90,West,278,0.0,1.0,79,0.00,,,1.91,,2013-06-02 23:02:00,
2013-06-02 19:12:00,83.0,76.0,29.90,West,278,0.0,1.0,79,0.00,,,1.91,,2013-06-02 23:12:00,
2013-06-02 19:22:00,82.0,74.0,29.90,West,264,3.0,3.0,78,0.00,,,1.91,,2013-06-02 23:22:00,
2013-06-02 19:32:00,82.0,75.0,29.91,WSW,250,0.0,1.0,80,0.00,,,1.91,,2013-06-02 23:32:00,
2013-06-02 19:42:00,82.0,75.0,29.91,WSW,250,0.0,1.0,80,0.00,,,1.91,,2013-06-02 23:42:00,
2013-06-02 19:52:00,82.0,76.0,29.92,WSW,242,1.0,1.0,82,0.00,,,1.91,,2013-06-02 23:52:00,
2013-06-02 20:01:00,81.0,75.0,29.92,WSW,238,0.0,2.0,82,0.00,,,1.91,,2013-06-03 00:01:00,
2013-06-02 20:12:00,81.0,75.0,29.92,WSW,238,0.0,2.0,82,0.00,,,1.91,,2013-06-03 00:12:00,
2013-06-02 20:22:00,81.0,75.0,29.92,SSW,194,0.0,0.0,83,0.00,,,1.91,,2013-06-03 00:22:00,
2013-06-02 20:32:00,81.0,75.0,29.92,WNW,283,1.0,1.0,83,0.00,,,1.91,,2013-06-03 00:32:00,
2013-06-02 20:42:00,81.0,75.0,29.92,WNW,283,1.0,1.0,83,0.00,,,1.91,,2013-06-03 00:42:00,
2013-06-02 20:52:00,81.0,75.0,29.92,WNW,283,1.0,1.0,83,0.00,,,1.91,,2013-06-03 00:52:00,
2013-06-02 21:01:00,80.0,75.0,29.93,SW,222,0.0,0.0,86,0.00,,,1.45,,2013-06-03 01:01:00,
2013-06-02 21:11:00,80.0,75.0,29.93,SW,222,0.0,0.0,86,0.00,,,1.45,,2013-06-03 01:11:00,
2013-06-02 21:21:00,80.0,75.0,29.94,West,274,0.0,0.0,86,0.00,,,0.93,,2013-06-03 01:21:00,
2013-06-02 21:32:00,80.0,75.0,29.95,SE,125,1.0,1.0,85,0.00,,,0.55,,2013-06-03 01:32:00,
2013-06-02 21:42:00,80.0,75.0,29.95,SE,125,1.0,1.0,85,0.00,,,0.55,,2013-06-03 01:42:00,
2013-06-02 21:52:00,79.0,74.0,29.95,SW,224,0.0,0.0,85,0.00,,,0.36,,2013-06-03 01:52:00,
2013-06-02 22:02:00,79.0,74.0,29.95,SSW,200,0.0,3.0,86,0.00,,,0.24,,2013-06-03 02:02:00,
2013-06-02 22:12:00,79.0,74.0,29.95,SSW,200,0.0,3.0,86,0.00,,,0.24,,2013-06-03 02:12:00,
2013-06-02 22:22:00,79.0,74.0,29.96,SSW,200,0.0,0.0,86,0.00,,,0.12,,2013-06-03 02:22:00,
2013-06-02 22:32:00,79.0,74.0,29.96,WSW,243,1.0,1.0,86,0.00,,,0.05,,2013-06-03 02:32:00,
2013-06-02 22:42:00,79.0,74.0,29.96,WSW,243,1.0,1.0,86,0.00,,,0.05,,2013-06-03 02:42:00,
2013-06-02 22:52:00,79.0,74.0,29.97,South,176,0.0,1.0,86,0.00,,,0.00,,2013-06-03 02:52:00,
2013-06-02 23:02:00,79.0,74.0,29.97,SSW,194,0.0,0.0,86,0.00,,,0.00,,2013-06-03 03:02:00,
2013-06-02 23:12:00,79.0,74.0,29.97,SSW,194,0.0,0.0,86,0.00,,,0.00,,2013-06-03 03:12:00,
2013-06-02 23:22:00,79.0,75.0,29.96,West,264,0.0,0.0,87,0.00,,,0.00,,2013-06-03 03:22:00,
2013-06-02 23:33:00,79.0,75.0,29.96,West,268,1.0,1.0,87,0.00,,,0.00,,2013-06-03 03:33:00,
2013-06-02 23:43:00,79.0,75.0,29.96,West,268,1.0,1.0,87,0.00,,,0.00,,2013-06-03 03:43:00,
2013-06-02 23:53:00,79.0,75.0,29.95,WSW,246,0.0,1.0,87,0.00,,,0.00,,2013-06-03 03:53:00,